NIMBUS 2 DEB

Satellite information

Favourite Embed

Satellite Type and Status

DEBRISIN ORBIT

Key statistics

Satellite NIMBUS 2 DEB at a glance.

Uptime

21763

Days in orbit

Revolutions

≈ 13.8

Per day

Orbit

SSO

Sun Synchronous Orbit

Inclination

100.4

Latest

Satellite identification and parameters

Extended collection of information and parameters for NIMBUS 2 DEB.

Object identification

Identified? True

Debris? True

Object name: NIMBUS 2 DEB

International designator: 1966-040AB

Object number (NORAD): 28612

Object ID (CCSDS): 28612

Country: UNITED STATES OF AMERICA (US)

Current information (Y/N): Y

RCS size: SMALL

Orbital parameters

Period: 104.599 minutes

Inclination: 100.3801 deg

SMA: 7353.779 km

Apoapsis: 1002.328 km

Periapsis: 948.96 km

RAAN: 210.5533 deg

Eccentricy: 0.00362859

Argument of periapsis: 153.5235 deg

Mean anomaly: 24.3131 deg

Mean motion: 13.76692341 rev/day

Mean motion (dot): 0.00004728 rev/day2

B* drag term: 0.004840657 1/REarth

Two-line elements (TLE)

Creation date: Dec. 14, 2025, 3:07 a.m.

Reference frame: TEME

Reference center: EARTH

Epoch: Dec. 13, 2025, 8:52 a.m. UTC

TLE line 0: 0 NIMBUS 2 DEB

TLE line 1: 1 28612U 66040AB 25347.36963381 .00004728 00000-0 48407-2 0 9991

TLE line 2: 2 28612 100.3801 210.5533 0036286 153.5235 24.3131 13.76692341674735

Live tracking on map

Real-time ground track for satellite NIMBUS 2 DEB.

In-orbit conjunctions

A list of the most updated potential collisions computed for object NIMBUS 2 DEB.

Target Orbit TCA Probability of collision Miss distance Type
COSMOS 887 LEO 2025-10-10 05:46:01 0.0001000893 442.0 (m) PAYLOAD
CZ-6A DEB LEO 2025-01-08 02:47:23 0.0001699106 783.0 (m) DEBRIS
COSMOS 489 LEO 2024-10-05 03:57:42 0.0001117436 504.0 (m) PAYLOAD

Associated space launch

Nimbus 2, the second in a series of second-generation meteorological research-and-development satellites, added an additional medium-resolution infrared radiometer (MRIR) compared to Nimbus 1.

NIMBUS 2 DEB was lifted into orbit during the mission ‘Thor SLV-2A Agena B | Nimbus 2’, on board a Thor SLV-2A Agena B space rocket.

The launch took place on May 15, 1966, 7:55 a.m. from Space Launch Complex 2E.

For more information about the launch, click the button.

Launch to space Thor SLV-2A Agena B | Nimbus 2
Thor SLV-2A Agena B | Nimbus 2

Agency: N/A

Status: Launch Successful

Launch date: May 15, 1966, 7:55 a.m. UTC

Rocket: Thor SLV-2A Agena B

Launch pad: Space Launch Complex 2E

Location: Vandenberg SFB, CA, USA

...

Latest news about this satellite

There are no fresh news available about this satellite. Check back as we update our databases every day.


Newsletter sign-up

Weekly statistics, charts and insights to help you stay on top of the space industry.